Погода в Тернополе

Погода в Тернополе : погода сейчас, прогноз погоды и архив. Всё, что Вы хотите узнать о погоде в Тернополе!

Хотите узнать прогноз погоды в Тернополе? Тогда Вам сюда: Погода в Тернополе

Поиск расширенной информации на нашем сайте:

Другие новости

Новости СМИ2

Главная страница сайта

Новости сайта

03.07.2017

Напоминаем, что на нашем специализированном сайте Метеоцентр.Азия вы можете получить высокодетализированные автоматические прогнозы погоды по пунктам России, СНГ и мира в авиационном формате (включающие направление и скорость ветра, видимость, явления погоды, количество и форму облачности, нижнюю и верхнюю границу облачности).


Погода в Тернополе - сегодня

Время (UTC), дата Ветер
(°,м/с) 
Видим.   Явления Облачность Т
(°С)
Тd
(°С)
f(%) Тe
(°С)
Pmin
(гПа)
dP
(гПа)
Po
(мм)
O2
(г/м3)
Тmin Tmax R s Состояние
почвы
06 15.08.17 340 (С) 10 км    3/0 средняя 
[Ac trans]
+17 +11.1 68 +20  1024.2  0.5  739  278  +12.2  +1.9       
09 15.08.17 350 (С) 20000 м    3/0 средняя 
[Ac trans]
+21.6 +7.7 41 +22  1022.9  -0.7  739  275           
12 15.08.17 010 (С) 20000 м    3/0 средняя 
[Ac trans]
+23.8 +9.1 39 +24  1021.9  -0.7  738  272           
15 15.08.17 030 (СВ) 20000 м    ясно 
+24 +10.1 41 +26  1021.4  -0.4  738  272           
18 15.08.17 010 (С) 10 км    4/0 средняя 
[Ac trans]
+19.4 +11.1 59 +23  1022.1  0.1  738  276           
21 15.08.17 тихо ()   10 км    3/0 средняя 
[Ac trans]
+15.7 +11.1 74 +19  1022.7  0.1  738  279           
00 16.08.17 350 (С) 10 км    ясно 
+13.4 +10.4 82 +17  1022.3  -0.7  738  281           
03 16.08.17 тихо ()   10 км    3/0 средняя 
[Ac trans]
+13.2 +9.5 78 +14  1021.9  -0.4  737  282           
06 16.08.17 020 (С) 10 км    3/0 верхняя 
[Cc]
+18.8 +11.6 63 +24  1021.2  0.1  737  276  +13.1  +2.1       
09 16.08.17 070 (В) 20000 м    5/0 средняя, верхняя 
[Ac trans|Cc]
+24.2 +15.5 58 +34  1020.2  -0.3  737  270           
12 16.08.17 150 (ЮВ) 20000 м    6/5 1000 м средняя 
[Cu med, cong|Ac trans]
+28.8 +16.6 48 +41  1018.3  -1.2  736  265           
15 16.08.17 140 (ЮВ) 10 км  гроза без осадков  6/5 1000 м кучево-дожд., верхняя 
[Cb calv|Ci ing]
+29.2 +16.1 45 +40  1017.1  -1.1  735  264           
18 16.08.17 нст () 10 км  слаб. ливневой дождь, в посл. час гроза  9/8 1000 м кучево-дожд., верхняя 
[Cb cap|Ci sp]
+19.6 +17.3 87 +34  1019.7  1.3  736  273    +29.3     
21 16.08.17 нст () 10 км  {ливн. осадки}  4/0 верхняя 
[Ci sp]
+17.8 +16.1 90 +30  1020  736  275           
00 17.08.17 тихо ()   6000 м  дымка{ливн. осадки}  4/0 средняя, верхняя 
[Ac trans|Ci sp]
+16.6 +15.4 93 +26  1019.5  -0.6  736  276      0.0     
03 17.08.17 тихо ()   6000 м  местами туман поземный  4/1 1000 м кучево-дожд., средняя, верхняя 
[Cb cap|Ac trans|Ci sp]
+15.7 +14.7 94 +24  1019.6  736  277           
06 17.08.17 тихо ()   10 км    6/0 средняя 
[Ac trans]
+19.5 +16.9 85 +32  1019.7  0.6  736  273  +14.7    0.0     
09 17.08.17 110 (В) 10 км    8/3 1000 м средняя 
[Cu hum|Ac trans]
+27.2 +15.1 48 +37  1019.2  0.4  737  267           
12 17.08.17 070 (В) 10 км    8/5 1000 м верхняя 
[Cu med, cong|Ci fib]
+29.5 +14.7 41 +38  1017.7  -1.2  736  265           
15 17.08.17 360 (С) 10 км    6/6 1000 м кучево-дожд. 
[Cb cap]
+29.4 +13.7 38 +36  1017.4  -0.3  736  265           
18 17.08.17 040 (СВ) 10 км    6/3 1000 м верхняя 
[Sc|Ci fib]
+22.8 +15 61 +32  1018.7  0.5  736  271           
21 17.08.17 360 (С) 10 км    3/0 верхняя 
[Ci fib]
+18.6 +14.7 78 +29  1019.7  0.4  736  275           
00 18.08.17 тихо ()   10 км    3/0 верхняя 
[Ci fib]
+16.4 +14 86 +24  1020  736  277           
03 18.08.17 тихо ()   10 км    3/0 верхняя 
[Ci fib]
+14.7 +12.9 89 +20  1019.7  -0.5  736  279           
06 18.08.17 090 (В) 10 км    ясно 
+21 +15.1 69 +30  1019.2  0.4  736  272  +14.6         
Время (UTC), дата Ветер
(°,м/с) 
Видим.   Явления Облачность Т
(°С)
Тd
(°С)
f(%) Тe
(°С)
Pmin
(гПа)
dP
(гПа)
Po
(мм)
O2
(г/м3)
Тmin Tmax R s Состояние
почвы

Для получения пояснительной информации подведите курсор к названию столбца.

ПОГОДА в Тернополе - архив

Всё, что Вы хотите узнать о погоде в Тернополе - удобно и подробно!

Выберите нужную дату (начиная с 1 января 2015* года) и нажмите кнопку "Найти".
Будут отображены архивные сводки погоды по пункту Тернополь, начиная с указанной даты.


Отображать данные в формате CSV (для использования в таблицах Excel)


Внимание! Наш архив погоды предназначен исключительно для личного некоммерческого использования в познавательных целях. Если Вам необходимы официальные справки о состоянии погоды (для производственных, юридических, коммерческих и т.п. целей), обращайтесь в органы Росгидромета.

*Примечание: данная дата относится к архиву по метеостанциям СССР (Россия, СНГ, Балтия).
Архив по метеостанциям Зарубежной Европы и Азии (кроме Китая) хранится 10 дней, по другим регионам земного шара (Китай, Африка, Америка, Австралия, Океания) - 1 день.

Тернополь - район местоположения метеостанции


Название, широта, долгота, высота метеостанции:
Тернополь 49.5°ш. 25.7°д. 329 м над ур. моря [Украина]

Дополнительная информация

В oтличие oт бoльшинства пoгoдных сайтoв мы публикуем пoдрoбную метеoинфoрмацию в детальнoм прoфессиoнальнoм фoрмате.

Характеристики температуры и влажнoсти вoздуха измеряются на высoте 2 м в тени вдали oт зданий и деревьев.
Скoрoсть ветра измеряется на высoте 10 м (на урoвне рoста челoвека скoрoсть ветра ниже в 1.5-2 раза). Если метеoстанция нахoдится в гoрoде или в лесу, тo скoрoсть ветра занижена на 2-4 м/с пo сравнению с oткрытым местoм. Скoрoсть ветра над акватoриями крупных рек и oзёр, а также на вершинах хoлмoв на 2-5 м/с выше, чем в oбычных услoвиях.
Атмoсфернoе давление в разных тoчках местнoсти мoжет значительнo oтличаться oт давления на метеoстанции, в зависимoсти oт услoвий рельефа (при пoдъёме на 10 м давление пoнижается примернo на 1 мм рт.ст.).